Regional Weather Roundup
Issued by NWS

Home | Current Version | Previous Version | Text Only | Print | Product List | Glossary On
Versions: 1 2 3 4 5 6 7 8 9 10 11 12 13 14 15 16 17 18 19 20 21 22 23 24 25 26 27 28 29 30 31 32 33 34 35 36 37 38 39 40 41 42 43 44 45 46 47 48 49 50
197
ASUS43 KDTX 100210
RWRMI
MICHIGAN HOURLY REGIONAL WEATHER ROUNDUP
NATIONAL WEATHER SERVICE DETROIT/PONTIAC MI
900 PM EST TUE FEB 09 2016

NOTE: "FAIR" INDICATES FEW OR NO CLOUDS BELOW 12,000 FEET WITH NO
SIGNIFICANT WEATHER AND/OR OBSTRUCTION TO VISIBILITY.

MIZ047>049-052>055-059>063-066>070-074>076-081>083-100300-
SOUTHEAST LOWER MICHIGAN

CITY           SKY/WX    TMP DP  RH WIND       PRES   REMARKS
ADRIAN         CLOUDY    25  16  68 NW13      29.75R WCI  14
ALMA           CLOUDY    26  19  74 W8        29.73R WCI  17
ANN ARBOR      CLOUDY    25  18  74 NW14      29.71R WCI  13
BAD AXE        LGT SNOW  25  23  91 NW12G20   29.64R WCI  14
CARO           CLOUDY    23  21  93 W14       29.67R WCI  11
DETROIT CITY   LGT SNOW  26  22  84 W10G17    29.69S FOG     WCI  16
DETROIT        LGT SNOW  26  20  77 W16       29.71S WCI  14
FLINT          LGT SNOW  26  20  77 W12       29.70R WCI  16
GROSSE ILE     LGT SNOW  27  21  80 W10       29.70R WCI  17
HILLSDALE      FLURRIES  23  18  81 NW16      29.73R WCI   9
HOWELL         CLOUDY    25  19  79 NW13      29.70R WCI  14

CITY           SKY/WX    TMP DP  RH WIND       PRES   REMARKS
JACKSON        CLOUDY    23  16  74 NW16G24   29.73R WCI  10
LAMBERTVILLE   CLOUDY    26  18  70 W16       29.74S WCI  14
LANSING        CLOUDY    24  18  77 NW13      29.73S WCI  12
LAPEER         LGT SNOW  24  22  90 W7G18     29.67R WCI  16
MASON          CLOUDY    24  19  80 NW14      29.72S WCI  12
MONROE         CLOUDY    27  19  70 W13       29.72S WCI  16
MT. CLEMENS    LGT SNOW  27  23  86 W13       29.65S FOG     WCI  16
PONTIAC        LGT SNOW  24  20  84 W14       29.67R FOG     WCI  12
PORT HOPE        N/A     27  24  89 NW24G30   29.61R WCI  12
PORT HURON     LGT SNOW  25  23  93 W8        29.65R WCI  16
TRI CITIES     CLOUDY    25  18  74 W12       29.70S WCI  14
MIDLAND        CLOUDY    25  17  72 W8G17     29.69S WCI  16
TROY           LGT SNOW  27  23  85 W13G18    29.70R WCI  16
SAGINAW HB     LGT SNOW  27  23  86 W16       29.69S WCI  14
$$
MIZ043>046-050>051-056>058-064>065-071>073-077>080-100300-
SOUTHWEST LOWER MICHIGAN

CITY           SKY/WX    TMP DP  RH WIND       PRES   REMARKS
BATTLE CREEK   CLOUDY    23  16  74 NW12      29.77S WCI  12
BENTON HARBOR  SNOW      22  19  89 W12G20    29.85S VSB 1/2 WCI  10
BIG RAPIDS     FLURRIES  22  16  77 NW10G17   29.73S WCI  11
COLDWATER      LGT SNOW  23  20  87 W8        29.77S WCI  14
FREMONT        CLOUDY    22  16  79 NW17G24   29.78S WCI   7
HOLLAND        LGT SNOW  23  19  85 NW13      29.81S FOG     WCI  11
GRAND RAPIDS   LGT SNOW  23  17  78 NW14      29.77S WCI  11
IONIA          FLURRIES  24  17  75 NW10      29.74S WCI  13
KALAMAZOO      LGT SNOW  23  17  78 NW12      29.79S WCI  12
LUDINGTON      LGT SNOW  20  14  76 N10       29.83R WCI   9
MARSHALL       CLOUDY    24  16  71 W12G20    29.75S WCI  13
MOUNT PLEASANT CLOUDY    25  14  62 NW12G18   29.71S WCI  14
MUSKEGON       LGT SNOW  23  16  74 NW20G25   29.82R WCI   8
SOUTH HAVEN    LGT SNOW  24  20  86 NW15G22   29.83S WCI  11
$$
MIZ016>042-100300-
NORTHERN LOWER MICHIGAN

CITY           SKY/WX    TMP DP  RH WIND       PRES   REMARKS
ALPENA         MIX PCPN  21  16  81 NW10      29.65S WCI  10
BEAVER ISLAND  LGT SNOW  18  15  86 N9G18     29.76R WCI   7
BELLAIRE       LGT SNOW  21  17  84 NW10G16   29.75S WCI  10
CADILLAC       FLURRIES  20  15  80 NW10G20   29.69S WCI   8
CHARLEVOIX     LGT SNOW  21  17  86 N16G24    29.77S WCI   7
FRANKFORT      LGT SNOW  21  18  85 NW9       29.80S WCI  11
GAYLORD        LGT SNOW  18  12  77 NW8G17    29.66R WCI   8
GRAYLING       LGT SNOW  20  16  83 NW7       29.68S WCI  11
HARBOR SPRINGS LGT SNOW  18  13  82 NW9       29.72S WCI   6
HOUGHTON LAKE  FLURRIES  20  14  77 NW13G22   29.67S WCI   7
MANISTEE       CLOUDY    21  12  68 NW15G30   29.81R WCI   8
OSCODA         CLOUDY    22  18  83 NW13G18   29.64S FOG     WCI  10
PELLSTON       LGT SNOW  17  11  77 NW17      29.72S WCI   1
ROGERS CITY    LGT SNOW  22  19  88 W9        29.66S WCI  12
TRAVERSE CITY  LGT SNOW  22  15  75 NW14G28   29.75S WCI   9
$$
MIZ007>008-015-100300-
EASTERN UPPER MICHIGAN

CITY           SKY/WX    TMP DP  RH WIND       PRES   REMARKS
KINROSS        CLOUDY    16  12  86 N10       29.70R WCI   3
MACKINAC ISLAN LGT SNOW  17  13  83 N13G21    29.70R WCI   4
NEWBERRY       LGT SNOW  14  11  90 N9G20     29.74S WCI   2
S. S. MARIE    FLURRIES  13   4  67 N8G22     29.71S WCI   2
$$
MIZ004>006-011>014-085-100300-
CENTRAL UPPER MICHIGAN

CITY           SKY/WX    TMP DP  RH WIND       PRES   REMARKS
MANISTIQUE     LGT SNOW  16   9  75 N16G29    29.78R WCI   1
ESCANABA       CLOUDY    16   5  62 NW15G25   29.85R WCI   1
MENOMINEE      CLOUDY    12   3  67 NW10G20   29.90S WCI  -1
SAWYER-GWINN   LGT SNOW  10   7  85 N23G29    29.83R WCI -10
$$
MIZ001>003-009>011-084-100300-
WESTERN UPPER MICHIGAN

CITY           SKY/WX    TMP DP  RH WIND       PRES   REMARKS
IRON MOUNTAIN  CLOUDY    11   2  67 NW16G30   29.88S WCI  -6
HOUGHTON       CLOUDY     9   1  70 N13G22    29.95S HAZE    WCI  -7
COPPER HARBOR    N/A     13   9  84 NE22G35   29.97S WCI  -6
IRONWOOD       CLOUDY     9   5  85 N14G22    29.97F WCI  -8
$$

ABBREVIATIONS USED IN REMARKS
   TC - TEMPERATURE IN CELSIUS
  WCI - WIND CHILL INDEX
   HX - HEAT INDEX
  VSB - VISIBILITY





USA.gov is the U.S. government's official web portal to all federal, state and local government web resources and services.